Regional Weather Roundup
Issued by NWS Upton, NY

Current Version | Previous Version | Text Only | Print | Product List | Glossary On
Versions: 1 2 3 4 5 6 7 8 9 10 11 12 13 14 15 16 17 18 19 20 21 22 23 24 25 26 27 28 29 30 31 32 33 34 35 36 37 38 39 40 41 42 43 44 45 46 47 48 49 50
000
ASUS41 KOKX 231609
RWROKX

REGIONAL WEATHER ROUNDUP
NATIONAL WEATHER SERVICE NEW YORK NY
1200 PM EDT WED AUG 23 2017

NOTE: "FAIR" INDICATES FEW OR NO CLOUDS BELOW 12,000 FEET WITH NO
SIGNIFICANT WEATHER AND/OR OBSTRUCTIONS TO VISIBILITY.

NYZ071-072-176-178-NJZ106-104-231700-
NEW YORK CITY METRO AREA

CITY           SKY/WX    TMP DP  RH WIND       PRES   REMARKS
Central Park   SUNNY     77  54  44 VRB3      29.87F
Bronx Bot Gard   N/A     77  54  44 N7        29.87S
LaGuardia APRT PTSUNNY   78  55  44 NW14      29.83F
Kennedy INTL   PTSUNNY   81  55  40 NW14      29.84S
Breezy Point     N/A     77 N/A N/A NW9         N/A
Newark/Liberty PTSUNNY   80  54  40 NW13      29.84F
Teterboro      SUNNY     78  55  44 NW9       29.84S
$$

NYZ177-179-078>081-231700-
LONG ISLAND NEW YORK

CITY           SKY/WX    TMP DP  RH WIND       PRES   REMARKS
Jones Beach      N/A     77 N/A N/A NW13        N/A
Matinecock PT    N/A     75 N/A N/A NW16        N/A
Farmingdale    SUNNY     79  53  40 NW10      29.83S
MacArthur/ISP  CLOUDY    81  66  60 NW10      29.82S
Shirley        CLOUDY    82  71  69 NW8       29.82S
Mt Sinai Harb    N/A     79 N/A N/A NW7         N/A
Westhampton    NOT AVBL
East Hampton   PTSUNNY   78  69  72 NW7       29.81S
Montauk          N/A     78  72  81 W8        29.82R
$$

NYZ052-065-067-231700-
HUDSON VALLEY

CITY           SKY/WX    TMP DP  RH WIND       PRES   REMARKS
White Plains   SUNNY     77  54  44 NW13      29.84S
Larchmont Harb   N/A     73 N/A N/A W14         N/A
Croton On Huds   N/A     79 N/A N/A NW9         N/A
Newburgh       MOSUNNY   75  57  53 W10G17    29.87S
Montgomery     MOSUNNY   76  54  46 VRB3      29.85S
Poughkeepsie   PTSUNNY   76  54  46 W9        29.83S
Albany         MOSUNNY   74  55  51 NW13G20   29.83F
$$

NJZ001-105-106-008-010-013-015-019>022-104-231700-
NEW JERSEY

CITY           SKY/WX    TMP DP  RH WIND       PRES   REMARKS
Newark/Liberty PTSUNNY   80  54  40 NW13      29.84F
Teterboro      SUNNY     78  55  44 NW9       29.84S
Caldwell       SUNNY     75  53  46 VRB6      29.87S
Somerville     MOSUNNY   79  54  41 NW8       29.85S
Linden         FAIR      79  56  45 N8        29.85F
Perth Amboy      N/A     75 N/A N/A NW14        N/A
Sussex         MOSUNNY   75  56  51 N8        29.88R
Andover          N/A     75  52  44 NW8       29.89R
Trenton        SUNNY     80  62  54 N7        29.86S
Millville      CLOUDY    82  72  71 N9        29.85S
Atlantic City  PTSUNNY   82  69  64 N6        29.85S
Wrightstown    PTSUNNY   78  66  66 NW10      29.83S
Toms River     MOSUNNY   79  65  62 NW9       29.86S
Belmar         MOSUNNY   79  58  48 NW13      29.86S
$$

PAZ047>061-062-071-231700-
EASTERN PENNSYLVANIA

CITY           SKY/WX    TMP DP  RH WIND       PRES   REMARKS
Philadelphia   PTSUNNY   81  54  39 VRB6      29.87S
Allentown      MOSUNNY   77  52  41 NW9       29.89R
Scranton       MOSUNNY   72  54  53 VRB3      29.90S
$$

CTZ002-004>006-009-010-012-RIZ004-006-007-MAZ004-011-015-231700-
SOUTHERN NEW ENGLAND
 IN CT

CITY           SKY/WX    TMP DP  RH WIND       PRES   REMARKS
Bradley INTL   PTSUNNY   78  54  43 N8        29.82S
Hartford       SUNNY     79  53  40 NW8       29.82R
Danbury        SUNNY     78  59  51 W8        29.86S
Wtrbury/Oxford SUNNY     74  55  51 NW8       29.86R
Norwalk Harbor   N/A     77 N/A N/A W15         N/A
Bridgeport     SUNNY     80  62  54 N13       29.82R
Meriden        SUNNY     78  56  46 VRB6      29.82S
New Haven      MOSUNNY   79  60  52 NW8       29.82R
Chester        PTSUNNY   77  63  61 N8        29.83R
Groton         MOSUNNY   80  64  58 NW8       29.79S
Wilimantic     SUNNY     77  54  44 VRB6G16   29.82S

 IN RI

CITY           SKY/WX    TMP DP  RH WIND       PRES   REMARKS
Providence     CLOUDY    80  65  59 W10       29.80R
Block Island   CLOUDY    74  70  87 W12       29.81S
Westerly       CLOUDY    80  66  62 VRB5      29.80S
 IN MA

CITY           SKY/WX    TMP DP  RH WIND       PRES   REMARKS
Boston         PTSUNNY   82  53  36 NW14      29.76S
Worcester      SUNNY     72  50  45 W14       29.82S
Westfield      MOSUNNY   77  52  41 NW12      29.82S
Provincetown   MOSUNNY   76  71  85 SW12      29.77S
Nantucket      CLOUDY    73  72  96 SW14      29.80S
$$

ANZ330-335-338-340-345-350-353-355-231700-
COASTAL MARINE OBSERVATIONS


STATION/POSITION TIME  SKY/WX   TEMP    WIND        PRES    VSBY  WAVE
                                AIR SEA DIR/SP/G                  HT/PER
                 (UTC)          (F)     (DEG/KT/KT) (MB)    (MI)  (FT/S)
NY HARB ENTRANCE 1450            75 75  330/ 12/ 14 1009.5          3/10
GREAT SOUTH BAY  1515            76 79  300/  8/ 12   N/A
23 SSW MONTAUK P 1450            72 71              1009.7          5/ 7
15 E BARNEGAT LI 1530               77                N/A           4/ 6
HUDSON CANYON    1450            76 76  270/  6/  8 1009.3          5/ 6
KINGS POINT      1530            75 75   10/ 12/ 15 1010.4
EXECUTION ROCKS  NOT AVBL
WESTERN LI SOUND NOT AVBL
CENTRAL LI SOUND NOT AVBL
EASTERN LI SOUND NOT AVBL
ROBBINS REEF     1530                   320/ 12/ 16 1011.3
$$


>>>>>>>>>>>>>>>>>>>>>>>>>>>> KEY <<<<<<<<<<<<<<<<<<<<<<<<<<<
>                                                          <
>     SKY/WX - Sky Condition/Present Weather               <
>     TMP    - Temperature in Fahrenheit                   <
>     DP     - Dew Point in Fahrenheit                     <
>     RH     - Relative Humidity in Percent                <
>     WIND   - Direction (from) and Speed in MPH           <
>     PRES   - Mean Sea Level Pressure (inches of Hg)      <
>     WCI    - Wind Chill Index                            <
>     VSB    - VISIBILITY IN MILES                         <
>     HX     - HEAT INDEX                                  <
>     TC     - TEMPERATURE IN CELSIUS                      <
>     VRB    - VARIABLE WIND DIRECTION                     <
>                                                          <
>>>>>>>>>>>>>>>>>>>>>>>>>>>> KEY <<<<<<<<<<<<<<<<<<<<<<<<<<<



USA.gov is the U.S. government's official web portal to all federal, state and local government web resources and services.